Flag for Australia Weather past 2 weeks in Sydney, New South Wales, Australia

Now
68 °F

Sprinkles. Partly sunny.


Feels Like: 68 °F
Forecast: 55 / 67 °F
Wind: 17 mph from North

Location: Sydney Airport

Current Time: Sep 16, 2014 at 11:13:41 AM

Latest Report: Sep 16, 2014 at 10:30 AM


Visibility: N/A

Pressure: 29.80 "Hg

Humidity: 73%

Dew point: 59 °F

Location of SydneyLocation

Historic Weather in Sydney — Graph

°F

Sydney temperature yesterday

Maximum temperature yesterday: 68 °F (at 10:00 AM)
Minimum temperature yesterday: 57 °F (at 2:30 AM)
Average temperature yesterday: 63 °F

Past Weeks' High & Low Weather Summary

 TemperatureHumidityPressure
High79 °F (Sep 11, 3:00 PM)100% (Sep 7, 11:30 PM)30.48 "Hg (Sep 7, 11:30 PM)
Low48 °F (Sep 2, 10:30 PM)21% (Sep 11, 3:00 PM)29.68 "Hg (Sep 10, 2:30 AM)
Average60 °F66%30.07 "Hg
* Reported Sep 1 10:00 AM — Sep 16 10:00 AM, Sydney, Weather by CustomWeather, © 2014

Note: Actual official high and low records may vary slightly from our data, if they occured in-between our weather recording intervals... More about our weather records

Advertising

Sydney weather history for previous 24 hours

 ConditionsComfort  
Time TempWeatherWind HumidityBarometerVisibility
10:00 AM
Sep 16
68 °FThundershowers. Partly sunny.20 mph69%29.83 "HgN/A
9:00 AM68 °FBroken clouds.23 mph69%29.83 "HgN/A
8:30 AM64 °FBroken clouds.8 mph78%29.83 "HgN/A
8:00 AM63 °FPartly sunny.9 mph77%29.86 "HgN/A
7:30 AM61 °FPartly sunny.7 mph83%29.86 "HgN/A
7:00 AM63 °FPartly sunny.6 mph77%29.89 "HgN/A
6:30 AM63 °FBroken clouds.6 mph77%29.86 "HgN/A
6:00 AM61 °FBroken clouds.5 mph83%29.86 "HgN/A
5:30 AM59 °FScattered showers. Broken clouds.10 mph88%29.89 "HgN/A
5:00 AM59 °FDrizzle. Broken clouds.10 mph88%29.89 "HgN/A
4:30 AM61 °FPassing clouds.6 mph77%29.92 "HgN/A
4:00 AM61 °FPassing clouds.8 mph83%29.89 "HgN/A
3:30 AM63 °FPassing clouds.5 mph77%29.89 "HgN/A
3:00 AM63 °FPartly cloudy.8 mph77%29.89 "HgN/A
2:30 AM63 °FPassing clouds.8 mph77%29.89 "HgN/A
1:30 AM61 °FPassing clouds.10 mph83%29.92 "HgN/A
1:00 AM61 °FScattered showers. Passing clouds.13 mph83%29.92 "HgN/A
12:00 AM63 °FScattered showers. Partly cloudy.12 mph73%30.01 "HgN/A
11:30 PM
Sep 15
63 °FSprinkles. Partly cloudy.8 mph77%29.98 "HgN/A
11:00 PM64 °FPassing clouds.8 mph68%29.98 "HgN/A
10:30 PM64 °FPassing clouds.7 mph68%29.98 "HgN/A
10:00 PM66 °FPassing clouds.7 mph64%29.98 "HgN/A
9:30 PM64 °FPassing clouds.7 mph68%30.01 "HgN/A
9:00 PM64 °FPassing clouds.9 mph64%30.01 "HgN/A
8:30 PM63 °FPassing clouds.12 mph73%30.01 "HgN/A
8:00 PM64 °FPassing clouds.12 mph64%30.01 "HgN/A
7:30 PM63 °FPassing clouds.12 mph68%29.98 "HgN/A
7:00 PM63 °FPassing clouds.13 mph68%29.98 "HgN/A
6:00 PM64 °FPassing clouds.12 mph64%29.98 "HgN/A
5:30 PM64 °FPassing clouds.16 mph64%29.98 "HgN/A
5:00 PM64 °FPassing clouds.16 mph64%29.98 "HgN/A
4:30 PM66 °FPartly sunny.17 mph56%29.95 "HgN/A
4:00 PM66 °FPartly sunny.16 mph56%29.95 "HgN/A
3:00 PM68 °FPartly sunny.15 mph53%29.98 "HgN/A
2:30 PM68 °FPartly sunny.16 mph53%29.98 "HgN/A
2:00 PM68 °FPassing clouds.15 mph53%29.98 "HgN/A
1:30 PM68 °FPassing clouds.14 mph53%29.98 "HgN/A
1:00 PM68 °FPassing clouds.12 mph53%29.98 "HgN/A
12:30 PM66 °FPassing clouds.13 mph56%30.01 "HgN/A
12:00 PM68 °FScattered clouds.12 mph53%30.01 "HgN/A
11:30 AM66 °FScattered clouds.9 mph56%30.04 "HgN/A
11:00 AM64 °FScattered clouds.8 mph60%30.04 "HgN/A
Weather by CustomWeather, © 2014

See weather overviewHow to use our weather pages